Lid_Strength_Index
2 2 2 2 2 2 2 2 2 2 2 2 3 3 3 3 3 3 3 3 3 4 3 3 2 2 5 11 10 2 -1 -2 0 5 9 7 6 7 9 8 8 9 9 7 7 7 7
2 2 2 2 2 2 2 3 3 3 3 3 3 3 3 3 3 3 3 4 4 4 4 3 2 2 7 13 7 0 0 1 3 7 9 6 5 5 7 8 9 7 8 8 7 7 7
1 2 2 2 2 3 3 3 3 3 3 3 4 4 3 3 3 3 4 4 4 4 4 2 2 2 6 10 3 1 3 5 6 7 8 4 3 6 6 9 6 7 10 9 8 8 9
2 2 2 2 3 3 3 3 3 3 3 3 4 4 4 4 4 4 4 5 5 4 3 2 2 5 8 5 4 4 5 7 6 8 7 3 2 5 7 6 7 10 10 14 9 8 8
2 2 2 2 3 3 3 3 3 3 4 4 4 4 4 5 5 5 6 5 4 3 2 2 6 7 7 1 4 5 5 6 7 9 7 1 3 7 7 10 12 11 15 14 12 8 9
2 2 2 2 3 3 3 3 4 4 4 4 4 5 5 5 5 6 6 5 2 3 3 3 3 9 6 6 4 4 6 5 7 9 9 8 7 10 10 12 15 14 15 13 14 10 10
2 2 2 3 3 3 4 4 4 4 4 4 4 5 5 5 5 6 8 7 8 9 8 10 9 9 6 5 4 5 6 6 7 10 12 9 11 12 11 10 10 11 12 13 11 9 11
2 2 3 3 3 3 4 4 4 4 4 4 4 5 5 6 6 6 9 11 10 7 12 8 7 7 6 5 7 6 5 7 9 12 11 13 14 11 9 9 10 11 13 13 11 10 11
2 3 3 3 3 3 3 4 4 4 5 5 5 5 6 6 6 8 10 9 9 9 14 11 8 7 7 6 7 7 6 8 10 11 12 14 11 9 9 10 11 11 13 13 13 11 10
2 3 3 3 3 4 4 4 4 5 5 5 5 5 6 7 9 9 8 7 7 8 14 11 10 7 7 6 8 5 6 7 10 10 11 13 11 10 11 11 10 14 9 10 12 13 17
3 3 3 3 3 4 4 4 4 5 5 5 5 6 7 7 10 9 8 7 10 10 16 9 9 6 8 8 9 8 7 8 10 10 10 12 11 12 12 11 9 11 9 11 11 13 15
3 3 3 3 4 4 4 4 5 5 5 5 6 6 7 8 9 8 7 8 10 13 16 11 9 9 10 10 10 9 9 8 8 10 11 11 10 10 11 10 8 8 11 11 12 14 18
2 3 3 3 4 4 4 5 5 5 6 6 7 7 8 7 9 7 8 10 14 16 11 12 13 11 11 11 11 11 11 11 12 14 14 11 11 11 10 12 9 10 13 19 20 19 19
3 3 3 3 4 4 4 5 5 5 6 6 7 8 8 7 7 8 11 12 17 13 13 12 13 13 11 11 12 11 12 13 12 13 15 14 14 11 11 11 10 12 13 17 20 21 18
3 3 3 3 4 5 5 5 5 6 6 7 8 8 8 7 6 8 11 16 16 14 12 12 13 14 14 12 12 13 13 13 11 12 14 16 15 11 10 10 9 12 13 12 15 15 17
3 3 3 4 4 5 5 5 6 6 6 7 9 7 7 6 7 10 13 15 15 12 12 12 15 14 15 13 14 14 14 12 11 11 11 13 15 12 10 10 11 10 10 14 15 18 20
3 3 3 4 4 5 5 5 6 6 7 7 8 9 6 7 9 11 15 15 13 11 11 12 13 13 13 13 13 14 13 11 10 11 11 13 14 11 12 12 13 12 13 14 13 15 17
3 3 3 4 4 4 5 5 5 7 7 9 9 10 5 8 11 14 14 13 10 10 8 9 11 12 13 13 13 13 12 11 10 11 13 13 15 15 13 12 10 11 13 14 15 16 15
3 3 4 4 4 4 4 5 6 6 7 9 10 10 5 8 13 12 11 9 8 9 9 9 10 10 11 13 15 13 11 9 8 10 12 13 16 17 15 14 12 12 13 15 14 14 16
3 4 4 4 4 4 5 5 5 6 6 9 11 11 9 10 11 12 12 11 10 8 9 9 10 9 10 11 12 12 10 9 8 7 5 9 16 15 16 14 12 12 11 12 12 14 15
4 4 4 4 4 4 5 5 5 6 6 8 9 12 11 13 12 12 13 11 10 10 9 9 10 10 11 12 12 12 10 9 8 6 9 11 14 16 14 13 12 10 11 11 12 12 13
4 3 4 4 4 4 4 5 5 6 7 9 11 12 11 12 12 12 12 12 11 9 10 11 10 9 10 12 12 12 11 12 11 9 10 11 12 12 14 11 11 11 10 10 11 11 11
4 3 4 5 5 5 5 5 5 6 8 11 11 11 11 12 13 13 13 11 10 9 8 8 8 9 10 9 8 8 9 9 10 11 11 12 13 13 14 11 11 14 11 11 10 9 10
4 4 5 5 5 5 5 5 5 6 7 11 11 11 12 14 12 11 10 10 10 9 10 8 8 10 7 6 7 9 10 10 10 10 11 11 13 14 15 13 17 12 9 9 10 9 9
4 4 5 5 5 5 5 5 5 5 6 10 10 10 12 14 12 11 10 10 10 10 10 9 8 8 7 9 10 12 12 12 10 9 11 11 12 14 16 16 13 11 9 9 10 10 8
4 5 5 5 5 5 5 5 5 5 6 10 10 10 11 13 14 10 11 11 12 13 12 10 8 8 8 10 11 15 16 14 13 11 12 11 11 12 15 17 18 12 8 7 7 13 7
5 5 5 5 5 5 5 5 5 5 6 9 10 10 10 13 11 11 12 12 11 12 13 12 10 10 9 11 14 15 15 11 15 15 14 13 13 14 14 16 13 9 8 6 13 12 7
5 5 5 6 6 5 5 6 5 6 6 8 10 9 11 13 12 10 9 10 10 12 13 12 11 10 10 12 13 13 14 13 14 14 16 15 16 15 14 16 17 7 8 11 9 6 6
5 5 5 6 6 6 6 6 6 6 6 7 13 10 9 12 12 10 8 7 7 8 10 11 11 10 9 11 11 12 13 12 14 15 12 15 12 14 13 13 9 7 7 6 6 7 6